Terug naar catalogus

FALCON 9 R/B

ActiefHEO
NORAD 60424·ROCKET BODY·🇺🇸 United States

Gelanceerd Aug 12, 2024 vanaf Vandenberg Space Force Base

Loading…

Volgende Passages (komende 24 uur)

TLE

VersSource: Space-Track

Epoch: Sep 14, 2026, 01:26 UTC

1 60424U 24143C   26257.06016929  .00002705  00000-0  81583-3 0  9997
2 60424  62.4112 271.6948 4699790 310.1033  17.2857  6.06599625 46105

Volg FALCON 9 R/B in realtime met AllMySat

Download on the App Store